Location: Castillon
(43.0896°N, 0.2156°E)
Time: 20:02:15
(UTC+00:00)

Daily predictions for brighter satellites

Satellite Brightness Start Highest point End
(mag) Time Altitude Azimuth Time Altitude Azimuth Time Altitude Azimuth
CORIOLIS 4.2 17:27:20 10° SSE 17:32:41 82° ENE 17:38:04 10° NNW
Cosmos 1703 3.4 17:30:49 10° S 17:34:41 53° E 17:38:34 10° NNE
Cosmos 2237 Rocket 4.1 17:30:08 10° NW 17:35:15 37° WSW 17:40:20 10° S
Meteor 2-10 Rocket 3.4 17:30:39 10° N 17:35:51 70° ENE 17:40:51 10° SSE
STARLINK-67 4.3 17:37:17 10° S 17:39:03 17° SE 17:40:50 10° E
SL-8 Rocket 4.0 17:36:55 10° S 17:43:13 83° E 17:49:30 10° N
ATLAS CENTAUR R/B 1.1 17:40:32 10° NNW 17:44:31 81° NE 17:48:13 10° SE
Cosmos 1727 Rocket 4.2 17:38:44 10° N 17:44:42 48° ENE 17:50:37 10° SSE
Starlink AZ 4.5 17:47:21 10° NNW 17:49:31 18° NNE 17:51:20 12° ENE
Starlink BG 4.5 17:47:35 10° NNW 17:49:44 18° NNE 17:51:34 12° ENE
Starlink BF 4.5 17:47:48 10° NNW 17:49:58 18° NNE 17:51:46 12° ENE
Starlink BL 4.5 17:48:00 10° NNW 17:50:12 19° NNE 17:52:01 12° ENE
USA 102 4.0 17:44:56 10° SE 17:50:14 38° ENE 17:52:27 10° N
Starlink AH 4.5 17:48:15 10° NNW 17:50:25 18° NNE 17:52:12 12° ENE
Starlink AC 4.5 17:48:29 10° NNW 17:50:39 19° NNE 17:52:25 12° ENE
Starlink X 4.5 17:48:42 10° NNW 17:50:53 19° NNE 17:52:38 12° ENE
Starlink AE 4.5 17:48:51 10° NNW 17:51:05 19° NNE 17:52:54 12° ENE
Starlink Z 4.5 17:49:08 10° NNW 17:51:20 19° NNE 17:53:04 12° ENE
Starlink AK 4.5 17:49:22 10° NNW 17:51:33 19° NNE 17:53:17 12° ENE
Starlink AL 4.5 17:49:36 10° NNW 17:51:47 19° NNE 17:53:31 12° ENE
Starlink AQ 4.5 17:49:48 10° NNW 17:52:00 19° NNE 17:53:43 13° ENE
Starlink AD 4.5 17:49:49 10° NNW 17:52:01 19° NNE 17:53:44 13° ENE
Starlink Y 4.5 17:50:15 10° NNW 17:52:28 19° NNE 17:54:09 13° ENE
Starlink AG 4.5 17:50:29 10° NNW 17:52:42 19° NNE 17:54:22 13° ENE
Starlink W 4.5 17:50:40 10° NNW 17:52:54 19° NNE 17:54:37 13° ENE
Starlink AJ 4.4 17:50:56 10° NNW 17:53:09 19° NNE 17:54:48 13° ENE
Starlink AM 4.4 17:51:23 10° NNW 17:53:36 19° NNE 17:55:14 13° ENE
Starlink AP 4.4 17:51:37 10° NNW 17:53:50 19° NNE 17:55:27 13° ENE
Starlink AA 4.4 17:51:49 10° NNW 17:54:02 19° NNE 17:55:39 13° ENE
YAOGAN 6 2.5 17:50:28 10° SSE 17:54:05 69° ENE 17:57:42 10° N
Starlink AF 4.4 17:52:03 10° NNW 17:54:17 19° NNE 17:55:53 13° ENE
Starlink AB 4.4 17:52:16 10° NNW 17:54:29 19° NNE 17:56:05 13° ENE
Starlink AN 4.4 17:52:31 10° NNW 17:54:44 19° NNE 17:56:20 13° ENE
CZ-2D R/B 4.2 17:56:54 10° SE 18:00:08 26° ENE 18:03:24 10° NNE
Starlink T 4.4 17:58:53 10° NW 18:01:36 23° NNE 18:03:19 16° ENE
Cosmos 1953 Rocket 4.3 17:58:33 10° SSW 18:02:57 57° W 18:07:22 10° N
SL-16 R/B 2.9 17:57:30 10° NNW 18:03:05 60° WSW 18:08:37 10° S
Starlink N 4.4 18:01:08 10° NW 18:03:52 24° NNE 18:05:29 17° ENE
Starlink AR 4.0 18:02:48 10° NNW 18:05:04 22° NNE 18:06:03 18° NE
Starlink Q 4.4 18:03:29 10° NW 18:06:16 24° NNE 18:07:45 18° ENE
Cosmos 1356 Rocket 3.3 18:02:34 10° N 18:06:40 77° E 18:10:49 10° SSE
Starlink P 4.3 18:05:52 10° NW 18:08:40 25° NNE 18:10:04 19° ENE
Cosmos 2227 4.4 18:03:12 10° S 18:08:42 51° ESE 18:14:14 10° NE
Shenzhou-11 Module 2.2 18:06:08 10° W 18:08:48 56° SSW 18:10:44 16° ESE
Cosmos 1842 Rocket 3.6 18:04:31 10° N 18:08:57 56° E 18:13:21 10° SSE
COSMO-SKYMED 1 2.5 18:05:13 10° NNE 18:09:34 80° E 18:13:55 10° S
Cosmos 1869 4.3 18:06:38 10° NNE 18:09:54 24° ENE 18:13:06 10° SE
Starlink U 4.3 18:08:10 10° NW 18:11:00 26° NNE 18:12:18 20° ENE
Cosmos 2297 Rocket 4.1 18:08:07 10° WSW 18:12:47 26° NW 18:17:29 10° N
Starlink B 4.2 18:10:30 10° NW 18:13:21 26° NNE 18:14:33 21° ENE
Cosmos 2263 Rocket 2.5 18:10:01 10° S 18:15:13 43° ESE 18:20:23 10° NE
Meteor 2-12 Rocket 4.4 18:09:56 10° S 18:15:54 68° E 18:21:55 10° NNE
Cosmos 1603 3.8 18:10:58 10° NNW 18:16:32 53° ENE 18:21:59 10° SE
Cosmos 1821 Rocket 4.2 18:11:56 10° SSE 18:17:59 49° E 18:24:00 10° NNE
ATLAS 3B R/B 4.1 18:15:55 10° SE 18:19:27 15° ESE 18:19:51 15° ESE
ISS -1.8 18:17:03 10° NW 18:19:35 19° N 18:21:02 15° NNE
USA 116 3.3 18:18:07 13° NNE 18:20:43 47° E 18:23:47 10° S
Cosmos 1939 Rocket 3.0 18:18:09 10° SSE 18:21:57 47° ENE 18:25:50 10° N
Envisat 4.3 18:20:39 10° S 18:25:28 43° W 18:30:20 10° NNW
Cosmos 2227 Rocket 4.3 18:22:18 10° WSW 18:26:42 23° NW 18:31:07 10° N
NOAA 11 4.1 18:21:44 10° SSE 18:27:11 69° ENE 18:32:38 10° N
USA 267 3.8 18:22:01 11° NE 18:28:04 52° NNW 18:34:22 10° WSW
NOSS 3-2 (C) 4.1 18:25:04 10° S 18:29:58 31° ESE 18:32:21 23° ENE
Cosmos 2221 2.4 18:26:10 10° N 18:30:28 72° E 18:34:46 10° SSE
Starlink D 3.9 18:28:13 10° NW 18:31:17 33° NNE 18:31:43 31° NE
H-2A R/B 3.3 18:33:08 20° NE 18:33:08 20° NE 18:36:07 10° NNE
Cosmos 1076 Rocket 3.7 18:29:17 10° SSE 18:33:24 47° E 18:37:36 10° NNE
CENTAUR R/B 3.4 18:28:58 10° SSE 18:33:40 26° ESE 18:35:03 24° E
Starlink S 3.8 18:30:39 10° NW 18:33:44 34° NNE 18:34:05 33° NE
Starlink C 3.8 18:33:01 10° NW 18:36:08 35° NNE 18:36:22 34° NE
Starlink E 3.7 18:35:25 10° NW 18:38:32 36° NNE 18:38:40 36° NNE
Meteor 1-27 4.3 18:34:04 10° NNW 18:39:38 77° W 18:45:13 10° S
Starlink J 3.7 18:37:53 10° NW 18:41:02 38° NNE 18:41:05 38° NNE
Starlink V 3.6 18:40:18 10° NW 18:43:24 39° NNE 18:43:24 39° NNE
Cosmos 1892 4.4 18:40:24 10° SSE 18:41:48 19° SE 18:41:48 19° SE
Cosmos 1943 3.1 18:38:16 10° NNW 18:43:54 67° ENE 18:49:32 10° SE
NOSS 3-2 (A) 3.3 18:40:03 10° SSW 18:45:38 64° ESE 18:49:29 24° NE
Cosmos 1934 Rocket 4.0 18:39:58 10° SSE 18:45:45 49° E 18:51:33 10° NNE
Starlink H 3.6 18:42:44 10° NW 18:45:47 40° NNE 18:45:47 40° NNE
Cosmos 2058 2.9 18:42:29 10° S 18:46:31 55° E 18:48:42 25° NNE
Atlas Centaur 2 4.0 18:44:45 10° SW 18:46:51 13° S 18:49:08 10° SSE
Cosmos 2123 Rocket 4.1 18:41:15 10° N 18:47:21 49° ENE 18:53:21 10° SSE
Starlink F 3.6 18:45:13 10° NW 18:48:10 42° NNE 18:48:10 42° NNE
Cosmos 407 Rocket 3.4 18:43:12 10° NNW 18:48:29 74° ENE 18:53:40 10° SSE
SL-8 R/B 4.3 18:44:04 10° WNW 18:48:42 44° N 18:50:09 34° NE
Cosmos 1371 Rocket 3.9 18:44:57 10° SSW 18:50:07 77° ESE 18:54:20 16° NNE
CSL-04 Debris 4.3 18:45:01 10° S 18:50:23 74° WSW 18:55:49 10° NNW
Starlink G 3.6 18:47:39 10° NW 18:50:32 42° N 18:50:32 42° N
Cosmos 1000 Rocket 4.4 18:44:44 10° N 18:51:00 85° E 18:57:17 10° S
Cosmos 1190 Rocket 3.9 18:46:07 10° NNW 18:51:25 68° ENE 18:56:43 10° SSE
Starlink L 3.7 18:50:05 10° NW 18:52:52 43° N 18:52:52 43° N
Cosmos 2239 Rocket 4.4 18:48:22 10° S 18:54:42 83° E 19:01:03 10° N
Cosmos 1437 2.6 18:52:17 10° S 18:55:02 71° SSW 18:55:02 71° SSW
Starlink A 3.7 18:52:34 10° NW 18:55:17 43° N 18:55:17 43° N
Starlink R 3.8 18:54:58 10° NW 18:57:35 42° N 18:57:35 42° N
Starlink K 3.8 18:57:29 10° NW 19:00:01 42° NNW 19:00:01 42° NNW
USA 234 3.6 18:55:31 10° SE 19:01:59 65° SW 19:08:29 10° NW
Starlink M 3.9 18:59:51 10° NW 19:02:18 41° NNW 19:02:18 41° NNW
Cosmos 44 Rocket 4.5 18:58:45 10° WSW 19:03:13 37° NW 19:06:24 17° NNE
Cosmos 676 Rocket 4.1 18:59:04 10° NNW 19:04:18 53° ENE 19:05:10 48° E
ADEOS Rocket 3.3 18:58:37 10° NNE 19:05:38 79° ESE 19:13:13 10° S
CSL-04 Rocket 4.4 19:01:27 10° S 19:06:51 55° W 19:12:19 10° NNW
CZ-4 R/B 3.5 19:04:29 10° SSW 19:08:04 29° W 19:11:43 10° NW
YAOGAN 1 4.0 19:04:40 10° SSW 19:08:42 38° W 19:12:46 10° NNW
Ariane Rocket 2.8 19:03:42 10° SSE 19:08:45 73° ENE 19:13:50 10° N
Cosmos 1535 Rocket 4.4 19:06:01 10° S 19:12:20 80° E 19:18:45 10° N
OAO 3 Rocket 4.3 19:11:25 10° WSW 19:15:28 30° S 19:15:46 30° S
Cosmos 1624 Rocket 4.2 19:11:16 10° SSW 19:16:32 72° WNW 19:19:50 23° NNE
USA 238 DEB 3.9 19:20:57 10° SW 19:27:34 67° NW 19:31:14 29° NNE
USA 238 3.9 19:21:03 10° SW 19:27:40 67° NW 19:31:17 30° NNE
OAO 2 Rocket 4.4 19:25:25 10° WSW 19:29:31 32° S 19:29:31 32° S
BREEZE-M DEB (TANK) 3.9 19:19:04 10° WNW 19:30:56 58° N 19:31:13 57° NNE
Cosmos 2056 Rocket 4.2 19:27:50 10° SW 19:32:59 54° WNW 19:36:01 24° N
MOS 1 4.3 19:43:31 49° S 19:45:06 78° WSW 19:50:50 10° NNW
CZ-2C R/B 4.2 19:47:51 36° N 19:47:51 36° N 19:51:13 10° N
Cosmos 1140 Rocket 4.4 19:42:18 10° NNW 19:47:20 47° WSW 19:49:53 26° SSW
ARGOS 4.2 19:49:47 35° N 19:49:47 35° N 19:52:51 10° NNW
Cosmos 2263 Rocket 3.8 19:54:27 10° WSW 19:59:17 30° NW 20:02:08 20° N
ATLAS 3B R/B 3.1 20:02:26 10° SSW 20:07:10 49° SSW 20:07:10 49° SSW
H-2A R/B 3.6 20:13:44 28° NW 20:13:44 28° NW 20:16:21 10° NNW
NOSS 3-2 (C) 4.2 20:14:53 10° WSW 20:19:51 47° WNW 20:19:51 47° WNW
CENTAUR R/B 3.2 20:17:47 10° SW 20:22:18 49° W 20:22:18 49° W
